Time,TemperatureF,DewpointF,PressureIn,WindDirection,WindDirectionDegrees,WindSpeedMPH,WindSpeedGustMPH,Humidity,HourlyPrecipIn,Conditions,Clouds,dailyrainin,SoftwareType,DateUTC
2013-05-27 00:02:00,57.0,49.0,-100.00,SE,130,7.0,9.0,76,-99.99,,,-99.99,,2013-05-27 05:02:00,
2013-05-27 00:32:00,55.0,50.0,-100.00,ESE,115,6.0,6.0,81,-99.99,,,-99.99,,2013-05-27 05:32:00,
2013-05-27 00:42:00,55.0,50.0,-100.00,ESE,115,6.0,6.0,81,-99.99,,,-99.99,,2013-05-27 05:42:00,
2013-05-27 00:52:00,55.0,50.0,-100.00,ESE,115,6.0,6.0,81,-99.99,,,-99.99,,2013-05-27 05:52:00,
2013-05-27 01:02:00,55.0,50.0,-100.00,ESE,115,6.0,6.0,81,-99.99,,,-99.99,,2013-05-27 06:02:00,
2013-05-27 01:32:00,55.0,50.0,-100.00,SE,145,6.0,7.0,83,-99.99,,,-99.99,,2013-05-27 06:32:00,
2013-05-27 01:42:00,55.0,50.0,-100.00,SE,145,6.0,7.0,83,-99.99,,,-99.99,,2013-05-27 06:42:00,
2013-05-27 01:52:00,55.0,50.0,-100.00,SE,145,6.0,7.0,83,-99.99,,,-99.99,,2013-05-27 06:52:00,
2013-05-27 02:02:00,55.0,50.0,-100.00,SE,145,6.0,7.0,83,-99.99,,,-99.99,,2013-05-27 07:02:00,
2013-05-27 02:32:00,55.0,53.0,-100.00,South,170,11.0,13.0,93,-99.99,,,-99.99,,2013-05-27 07:32:00,
2013-05-27 02:42:00,55.0,53.0,-100.00,South,170,11.0,13.0,93,-99.99,,,-99.99,,2013-05-27 07:42:00,
2013-05-27 02:52:00,55.0,53.0,-100.00,South,170,11.0,13.0,93,-99.99,,,-99.99,,2013-05-27 07:52:00,
2013-05-27 03:02:00,55.0,53.0,-100.00,South,170,11.0,13.0,93,-99.99,,,-99.99,,2013-05-27 08:02:00,
2013-05-27 03:33:00,54.0,53.0,-100.00,SSE,160,7.0,8.0,97,-99.99,,,-99.99,,2013-05-27 08:33:00,
2013-05-27 03:42:00,54.0,53.0,-100.00,SSE,160,7.0,8.0,97,-99.99,,,-99.99,,2013-05-27 08:42:00,
2013-05-27 03:52:00,54.0,53.0,-100.00,SSE,160,7.0,8.0,97,-99.99,,,-99.99,,2013-05-27 08:52:00,
2013-05-27 04:02:00,54.0,53.0,-100.00,SSE,160,7.0,8.0,97,-99.99,,,-99.99,,2013-05-27 09:02:00,
2013-05-27 04:33:00,54.0,53.0,-100.00,SSE,160,7.0,7.0,98,-99.99,,,-99.99,,2013-05-27 09:33:00,
2013-05-27 04:42:00,54.0,53.0,-100.00,SSE,160,7.0,7.0,98,-99.99,,,-99.99,,2013-05-27 09:42:00,
2013-05-27 04:53:00,54.0,53.0,-100.00,SSE,160,7.0,7.0,98,-99.99,,,-99.99,,2013-05-27 09:53:00,
2013-05-27 05:02:00,54.0,53.0,-100.00,SSE,160,7.0,7.0,98,-99.99,,,-99.99,,2013-05-27 10:02:00,
2013-05-27 05:10:00,54.0,54.0,-100.00,South,175,3.0,3.0,99,-99.99,,,-99.99,,2013-05-27 10:10:00,
2013-05-27 05:32:00,54.0,54.0,-100.00,South,175,3.0,3.0,99,-99.99,,,-99.99,,2013-05-27 10:32:00,
2013-05-27 05:42:00,54.0,54.0,-100.00,South,175,3.0,3.0,99,-99.99,,,-99.99,,2013-05-27 10:42:00,
2013-05-27 05:52:00,54.0,54.0,-100.00,South,175,3.0,3.0,99,-99.99,,,-99.99,,2013-05-27 10:52:00,
2013-05-27 06:02:00,54.0,54.0,-100.00,South,175,3.0,3.0,99,-99.99,,,-99.99,,2013-05-27 11:02:00,
2013-05-27 06:32:00,54.0,54.0,-100.00,SSE,150,6.0,6.0,99,-99.99,,,-99.99,,2013-05-27 11:32:00,
2013-05-27 06:42:00,54.0,54.0,-100.00,SSE,150,6.0,6.0,99,-99.99,,,-99.99,,2013-05-27 11:42:00,
2013-05-27 06:52:00,54.0,54.0,-100.00,SSE,150,6.0,6.0,99,-99.99,,,-99.99,,2013-05-27 11:52:00,
2013-05-27 07:01:00,54.0,54.0,-100.00,SSE,150,6.0,6.0,99,-99.99,,,-99.99,,2013-05-27 12:01:00,
2013-05-27 07:32:00,54.0,54.0,-100.00,East,95,4.0,4.0,99,-99.99,,,-99.99,,2013-05-27 12:32:00,
2013-05-27 07:42:00,54.0,54.0,-100.00,East,95,4.0,4.0,99,-99.99,,,-99.99,,2013-05-27 12:42:00,
2013-05-27 07:52:00,54.0,54.0,-100.00,East,95,4.0,4.0,99,-99.99,,,-99.99,,2013-05-27 12:52:00,
2013-05-27 08:01:00,54.0,54.0,-100.00,East,95,4.0,4.0,99,-99.99,,,-99.99,,2013-05-27 13:01:00,
2013-05-27 08:10:00,55.0,55.0,-100.00,East,85,5.0,6.0,99,-99.99,,,-99.99,,2013-05-27 13:10:00,
2013-05-27 08:32:00,55.0,55.0,-100.00,East,85,5.0,6.0,99,-99.99,,,-99.99,,2013-05-27 13:32:00,
2013-05-27 08:42:00,55.0,55.0,-100.00,East,85,5.0,6.0,99,-99.99,,,-99.99,,2013-05-27 13:42:00,
2013-05-27 08:53:00,55.0,55.0,-100.00,East,85,5.0,6.0,99,-99.99,,,-99.99,,2013-05-27 13:53:00,
2013-05-27 09:02:00,55.0,55.0,-100.00,East,85,5.0,6.0,99,-99.99,,,-99.99,,2013-05-27 14:02:00,
2013-05-27 09:10:00,57.0,55.0,-100.00,East,90,6.0,8.0,93,-99.99,,,-99.99,,2013-05-27 14:10:00,
2013-05-27 09:32:00,57.0,55.0,-100.00,East,90,6.0,8.0,93,-99.99,,,-99.99,,2013-05-27 14:32:00,
2013-05-27 09:42:00,57.0,55.0,-100.00,East,90,6.0,8.0,93,-99.99,,,-99.99,,2013-05-27 14:42:00,
2013-05-27 09:52:00,57.0,55.0,-100.00,East,90,6.0,8.0,93,-99.99,,,-99.99,,2013-05-27 14:52:00,
2013-05-27 10:01:00,57.0,55.0,-100.00,East,90,6.0,8.0,93,-99.99,,,-99.99,,2013-05-27 15:01:00,
2013-05-27 10:33:00,60.0,53.0,-100.00,ESE,110,10.0,12.0,79,-99.99,,,-99.99,,2013-05-27 15:33:00,
2013-05-27 10:43:00,60.0,53.0,-100.00,ESE,110,10.0,12.0,79,-99.99,,,-99.99,,2013-05-27 15:43:00,
2013-05-27 10:53:00,60.0,53.0,-100.00,ESE,110,10.0,12.0,79,-99.99,,,-99.99,,2013-05-27 15:53:00,
2013-05-27 11:03:00,60.0,53.0,-100.00,ESE,110,10.0,12.0,79,-99.99,,,-99.99,,2013-05-27 16:03:00,
2013-05-27 11:33:00,61.0,52.0,-100.00,SE,140,12.0,14.0,72,-99.99,,,-99.99,,2013-05-27 16:33:00,
2013-05-27 11:42:00,61.0,52.0,-100.00,SE,140,12.0,14.0,72,-99.99,,,-99.99,,2013-05-27 16:42:00,
2013-05-27 11:53:00,61.0,52.0,-100.00,SE,140,12.0,14.0,72,-99.99,,,-99.99,,2013-05-27 16:53:00,
2013-05-27 12:02:00,61.0,52.0,-100.00,SE,140,12.0,14.0,72,-99.99,,,-99.99,,2013-05-27 17:02:00,
2013-05-27 12:32:00,62.0,53.0,-100.00,SE,140,14.0,17.0,73,-99.99,,,-99.99,,2013-05-27 17:32:00,
2013-05-27 12:43:00,62.0,53.0,-100.00,SE,140,14.0,17.0,73,-99.99,,,-99.99,,2013-05-27 17:43:00,
2013-05-27 12:52:00,62.0,53.0,-100.00,SE,140,14.0,17.0,73,-99.99,,,-99.99,,2013-05-27 17:52:00,
2013-05-27 13:02:00,62.0,53.0,-100.00,SE,140,14.0,17.0,73,-99.99,,,-99.99,,2013-05-27 18:02:00,
2013-05-27 13:32:00,63.0,56.0,-100.00,SE,145,14.0,17.0,77,-99.99,,,-99.99,,2013-05-27 18:32:00,
2013-05-27 13:42:00,63.0,56.0,-100.00,SE,145,14.0,17.0,77,-99.99,,,-99.99,,2013-05-27 18:42:00,
2013-05-27 13:52:00,63.0,56.0,-100.00,SE,145,14.0,17.0,77,-99.99,,,-99.99,,2013-05-27 18:52:00,
2013-05-27 14:01:00,63.0,56.0,-100.00,SE,145,14.0,17.0,77,-99.99,,,-99.99,,2013-05-27 19:01:00,
2013-05-27 14:32:00,64.0,57.0,-100.00,SE,125,11.0,13.0,76,-99.99,,,-99.99,,2013-05-27 19:32:00,
2013-05-27 14:42:00,64.0,57.0,-100.00,SE,125,11.0,13.0,76,-99.99,,,-99.99,,2013-05-27 19:42:00,
2013-05-27 14:52:00,64.0,57.0,-100.00,SE,125,11.0,13.0,76,-99.99,,,-99.99,,2013-05-27 19:52:00,
2013-05-27 15:01:00,64.0,57.0,-100.00,SE,125,11.0,13.0,76,-99.99,,,-99.99,,2013-05-27 20:01:00,
2013-05-27 15:32:00,65.0,57.0,-100.00,SE,135,10.0,11.0,75,-99.99,,,-99.99,,2013-05-27 20:32:00,
2013-05-27 15:42:00,65.0,57.0,-100.00,SE,135,10.0,11.0,75,-99.99,,,-99.99,,2013-05-27 20:42:00,
2013-05-27 15:52:00,65.0,57.0,-100.00,SE,135,10.0,11.0,75,-99.99,,,-99.99,,2013-05-27 20:52:00,
2013-05-27 16:01:00,65.0,57.0,-100.00,SE,135,10.0,11.0,75,-99.99,,,-99.99,,2013-05-27 21:01:00,
2013-05-27 16:10:00,66.0,58.0,-100.00,SE,140,12.0,15.0,74,-99.99,,,-99.99,,2013-05-27 21:10:00,
2013-05-27 16:33:00,66.0,58.0,-100.00,SE,140,12.0,15.0,74,-99.99,,,-99.99,,2013-05-27 21:33:00,
2013-05-27 16:43:00,66.0,58.0,-100.00,SE,140,12.0,15.0,74,-99.99,,,-99.99,,2013-05-27 21:43:00,
2013-05-27 16:53:00,66.0,58.0,-100.00,SE,140,12.0,15.0,74,-99.99,,,-99.99,,2013-05-27 21:53:00,
2013-05-27 17:02:00,66.0,58.0,-100.00,SE,140,12.0,15.0,74,-99.99,,,-99.99,,2013-05-27 22:02:00,
2013-05-27 17:10:00,66.0,58.0,-100.00,SE,140,11.0,16.0,75,-99.99,,,-99.99,,2013-05-27 22:10:00,
2013-05-27 17:33:00,66.0,58.0,-100.00,SE,140,11.0,16.0,75,-99.99,,,-99.99,,2013-05-27 22:33:00,
2013-05-27 17:42:00,66.0,58.0,-100.00,SE,140,11.0,16.0,75,-99.99,,,-99.99,,2013-05-27 22:42:00,
2013-05-27 17:53:00,66.0,58.0,-100.00,SE,140,11.0,16.0,75,-99.99,,,-99.99,,2013-05-27 22:53:00,
2013-05-27 18:02:00,66.0,58.0,-100.00,SE,140,11.0,16.0,75,-99.99,,,-99.99,,2013-05-27 23:02:00,
2013-05-27 18:32:00,66.0,58.0,-100.00,SE,145,8.0,10.0,76,-99.99,,,-99.99,,2013-05-27 23:32:00,
2013-05-27 18:42:00,66.0,58.0,-100.00,SE,145,8.0,10.0,76,-99.99,,,-99.99,,2013-05-27 23:42:00,
2013-05-27 18:52:00,66.0,58.0,-100.00,SE,145,8.0,10.0,76,-99.99,,,-99.99,,2013-05-27 23:52:00,
2013-05-27 19:01:00,66.0,58.0,-100.00,SE,145,8.0,10.0,76,-99.99,,,-99.99,,2013-05-28 00:01:00,
2013-05-27 19:10:00,66.0,59.0,-100.00,SE,135,6.0,8.0,79,-99.99,,,-99.99,,2013-05-28 00:10:00,
2013-05-27 19:32:00,66.0,59.0,-100.00,SE,135,6.0,8.0,79,-99.99,,,-99.99,,2013-05-28 00:32:00,
2013-05-27 19:42:00,66.0,59.0,-100.00,SE,135,6.0,8.0,79,-99.99,,,-99.99,,2013-05-28 00:42:00,
2013-05-27 19:52:00,66.0,59.0,-100.00,SE,135,6.0,8.0,79,-99.99,,,-99.99,,2013-05-28 00:52:00,
2013-05-27 20:01:00,66.0,59.0,-100.00,SE,135,6.0,8.0,79,-99.99,,,-99.99,,2013-05-28 01:01:00,
2013-05-27 20:32:00,64.0,61.0,-100.00,SE,130,2.0,3.0,91,-99.99,,,-99.99,,2013-05-28 01:32:00,
2013-05-27 20:42:00,64.0,61.0,-100.00,SE,130,2.0,3.0,91,-99.99,,,-99.99,,2013-05-28 01:42:00,
2013-05-27 20:52:00,64.0,61.0,-100.00,SE,130,2.0,3.0,91,-99.99,,,-99.99,,2013-05-28 01:52:00,
2013-05-27 21:02:00,64.0,61.0,-100.00,SE,130,2.0,3.0,91,-99.99,,,-99.99,,2013-05-28 02:02:00,
2013-05-27 21:32:00,62.0,62.0,-100.00,SSE,150,4.0,5.0,99,-99.99,,,-99.99,,2013-05-28 02:32:00,
2013-05-27 21:42:00,62.0,62.0,-100.00,SSE,150,4.0,5.0,99,-99.99,,,-99.99,,2013-05-28 02:42:00,
2013-05-27 21:52:00,62.0,62.0,-100.00,SSE,150,4.0,5.0,99,-99.99,,,-99.99,,2013-05-28 02:52:00,
2013-05-27 22:01:00,62.0,62.0,-100.00,SSE,150,4.0,5.0,99,-99.99,,,-99.99,,2013-05-28 03:01:00,
2013-05-27 22:33:00,63.0,62.0,-100.00,SSE,155,9.0,10.0,96,-99.99,,,-99.99,,2013-05-28 03:33:00,
2013-05-27 22:43:00,63.0,62.0,-100.00,SSE,155,9.0,10.0,96,-99.99,,,-99.99,,2013-05-28 03:43:00,
2013-05-27 22:53:00,63.0,62.0,-100.00,SSE,155,9.0,10.0,96,-99.99,,,-99.99,,2013-05-28 03:53:00,
2013-05-27 23:03:00,63.0,62.0,-100.00,SSE,155,9.0,10.0,96,-99.99,,,-99.99,,2013-05-28 04:03:00,
2013-05-27 23:33:00,62.0,61.0,-100.00,South,175,9.0,11.0,97,-99.99,,,-99.99,,2013-05-28 04:33:00,
2013-05-27 23:43:00,62.0,61.0,-100.00,South,175,9.0,11.0,97,-99.99,,,-99.99,,2013-05-28 04:43:00,
2013-05-27 23:53:00,62.0,61.0,-100.00,South,175,9.0,11.0,97,-99.99,,,-99.99,,2013-05-28 04:53:00,